Powrót do katalogu

STARLINK-34080

AktywnyŁącznośćVLEO
NORAD 64116·PAYLOAD·🇺🇸 United States

Wystrzelony May 23, 2025 z Vandenberg Space Force Base

Loading…

Następne Przeloty (najbliższe 24 godziny)

TLE

ŚwieżeSource: CelesTrak SupGP

Epoka: Sep 14, 2026, 13:57 UTC

1 64116C 25110W   26257.58173611 -.00026696  00000+0 -85829-3 0  2573
2 64116  53.1578 227.6832 0001572  84.5993  21.0794 15.31722193    10

Śledź STARLINK-34080 w czasie rzeczywistym z AllMySat

Download on the App Store